Oxnard, CA

8:41 AM PDT on June 28, 2017 (GMT -0700)
Oxnard

Weather History for KOXR - July, 2013

Change the Weather History Date:

Wednesday, July 3, 2013

  Actual Average Record
Temperature  
Mean Temperature 66 °F -  
Max Temperature 71 °F 73 °F 88 °F (1959)
Min Temperature 62 °F 57 °F 48 °F (1949)
Growing Degree Days 16 (Base 50)    
Moisture  
Dew Point 61 °F    
Average Humidity 90    
Maximum Humidity 96    
Minimum Humidity 75    
Precipitation  
Precipitation 0.00 in - - ()
Sea Level Pressure  
Sea Level Pressure 29.87 in    
Wind  
Wind Speed 5 mph (West)    
Max Wind Speed 14 mph    
Max Gust Speed -    
Visibility 5 miles    
Events Fog , Rain    
Averages and records for this station are not official NWS values.
T = Trace of Precipitation, MM = Missing Value Source: NWS Daily Summary

Daily Weather History Graph

Daily Weather History Graph

Search for Another Location

Airport or City:

Trip Planner

Search our weather history database for the weather conditions in past years. The results will help you decide how hot, cold, wet, or windy it might be!

Date:

Astronomy

Jul. 03, 2013 Rise Set
Actual Time 5:49 AM PDT 8:12 PM PDT
Civil Twilight 5:20 AM PDT 8:41 PM PDT
Nautical Twilight 4:44 AM PDT 9:17 PM PDT
Astronomical Twilight 4:05 AM PDT 9:56 PM PDT
Moon 2:25 AM PDT (7/3) 4:31 PM PDT (7/3)
Length of Visible Light 15h 20m
Length of Day
14h 22m
Waning Crescent, 17% of the Moon is Illuminated
Jul 3
Waning Crescent
Jul 8
New
Jul 15
First Quarter
Jul 22
Full
Jul 29
Last Quarter

Hourly Weather History & Observations

Time (PDT) Temp. Dew Point Humidity Pressure Visibility Wind Dir Wind Speed Gust Speed Precip Events Conditions
12:51 AM 64.9 °F 62.1 °F 90% 29.90 in 7.0 mi WNW 10.4 mph - N/A   Overcast
1:23 AM 64.4 °F 62.6 °F 94% 29.90 in 3.0 mi West 8.1 mph - N/A   Overcast
1:35 AM 64.4 °F 62.6 °F 94% 29.90 in 2.5 mi West 5.8 mph - N/A   Overcast
1:51 AM 64.0 °F 62.1 °F 93% 29.90 in 1.0 mi WNW 6.9 mph - N/A   Overcast
2:01 AM 64.4 °F 62.6 °F 94% 29.90 in 0.8 mi West 5.8 mph - N/A   Mist
2:51 AM 64.0 °F 62.1 °F 93% 29.90 in 0.5 mi SW 3.5 mph - N/A Fog Fog
3:51 AM 64.0 °F 62.1 °F 93% 29.88 in 1.2 mi Calm Calm - N/A   Overcast
4:15 AM 64.4 °F 62.6 °F 94% 29.88 in 3.0 mi Calm Calm - N/A   Overcast
4:51 AM 64.0 °F 62.1 °F 93% 29.89 in 3.0 mi Calm Calm - N/A   Overcast
5:51 AM 64.0 °F 62.1 °F 93% 29.90 in 5.0 mi WNW 6.9 mph - N/A   Overcast
6:08 AM 62.6 °F 60.8 °F 94% 29.90 in 2.5 mi West 5.8 mph - N/A   Overcast
6:23 AM 62.6 °F 60.8 °F 94% 29.90 in 1.2 mi WNW 5.8 mph - N/A   Overcast
6:44 AM 62.6 °F 60.8 °F 94% 29.90 in 0.8 mi WNW 4.6 mph - N/A   Overcast
6:51 AM 63.0 °F 61.0 °F 93% 29.90 in 0.8 mi West 6.9 mph - N/A   Overcast
7:51 AM 63.0 °F 61.0 °F 93% 29.91 in 1.8 mi Calm Calm - 0.00 in Rain Light Rain
7:58 AM 62.6 °F 60.8 °F 94% 29.92 in 2.0 mi Calm Calm - 0.00 in Rain Light Rain
8:34 AM 62.6 °F 60.8 °F 94% 29.92 in 3.0 mi Calm Calm - 0.00 in   Overcast
8:51 AM 63.0 °F 61.0 °F 93% 29.93 in 3.0 mi Calm Calm - 0.00 in   Overcast
9:51 AM 64.0 °F 61.0 °F 90% 29.92 in 10.0 mi Calm Calm - N/A   Overcast
10:03 AM 64.4 °F 60.8 °F 88% 29.92 in 10.0 mi Calm Calm - N/A   Overcast
10:51 AM 66.9 °F 61.0 °F 81% 29.92 in 10.0 mi Calm Calm - N/A   Overcast
11:04 AM 66.2 °F 60.8 °F 83% 29.92 in 10.0 mi SW 5.8 mph - N/A   Overcast
11:22 AM 68.0 °F 60.8 °F 78% 29.91 in 10.0 mi Variable 3.5 mph - N/A   Scattered Clouds
11:51 AM 69.1 °F 61.0 °F 75% 29.91 in 10.0 mi Variable 3.5 mph - N/A   Partly Cloudy
12:51 PM 66.9 °F 61.0 °F 81% 29.90 in 10.0 mi West 9.2 mph - N/A   Mostly Cloudy
1:51 PM 68.0 °F 61.0 °F 78% 29.88 in 0.0 mi WSW 6.9 mph - N/A   Scattered Clouds
1:56 PM 68.0 °F 60.8 °F 78% 29.88 in 10.0 mi WSW 8.1 mph - N/A   Mostly Cloudy
2:09 PM 68.0 °F 60.8 °F 78% 29.87 in 10.0 mi WSW 8.1 mph - N/A   Scattered Clouds
2:51 PM 69.1 °F 61.0 °F 75% 29.86 in 10.0 mi WSW 10.4 mph - N/A   Scattered Clouds
3:51 PM 66.9 °F 60.1 °F 79% 29.83 in 10.0 mi West 13.8 mph - N/A   Mostly Cloudy
4:51 PM 66.0 °F 60.1 °F 81% 29.83 in 10.0 mi WSW 8.1 mph - N/A   Overcast
5:51 PM 64.9 °F 60.1 °F 84% 29.83 in 8.0 mi West 9.2 mph - N/A   Overcast
6:51 PM 64.0 °F 60.1 °F 87% 29.82 in 6.0 mi West 8.1 mph - N/A   Overcast
7:51 PM 64.0 °F 61.0 °F 90% 29.83 in 6.0 mi West 6.9 mph - N/A   Overcast
8:14 PM 62.6 °F 60.8 °F 94% 29.83 in 6.0 mi West 5.8 mph - N/A   Overcast
8:51 PM 63.0 °F 60.1 °F 90% 29.83 in 5.0 mi West 4.6 mph - N/A   Overcast
9:51 PM 63.0 °F 61.0 °F 93% 29.83 in 2.5 mi West 4.6 mph - N/A   Overcast
10:00 PM 62.6 °F 60.8 °F 94% 29.83 in 2.0 mi West 4.6 mph - N/A   Overcast
10:13 PM 62.6 °F 60.8 °F 94% 29.84 in 3.0 mi West 3.5 mph - N/A   Overcast
10:21 PM 62.6 °F 60.8 °F 94% 29.83 in 1.8 mi West 3.5 mph - N/A   Overcast
10:29 PM 62.6 °F 60.8 °F 94% 29.83 in 2.5 mi Calm Calm - N/A   Overcast
10:39 PM 62.6 °F 60.8 °F 94% 29.84 in 3.0 mi Calm Calm - N/A   Overcast
10:47 PM 62.6 °F 60.8 °F 94% 29.84 in 2.5 mi Calm Calm - N/A   Overcast
10:51 PM 62.1 °F 61.0 °F 96% 29.84 in 2.5 mi Calm Calm - N/A   Overcast
11:05 PM 62.6 °F 60.8 °F 94% 29.84 in 3.0 mi WNW 3.5 mph - N/A   Overcast
11:12 PM 62.6 °F 60.8 °F 94% 29.84 in 2.5 mi WNW 3.5 mph - N/A   Overcast
11:24 PM 62.6 °F 60.8 °F 94% 29.84 in 3.0 mi West 3.5 mph - N/A   Overcast
11:40 PM 62.6 °F 60.8 °F 94% 29.84 in 1.8 mi West 4.6 mph - N/A   Overcast
11:51 PM 62.1 °F 61.0 °F 96% 29.84 in 1.2 mi WSW 3.5 mph - N/A   Overcast